F1ZRP-13 Weather Reports


Display with metric or nautical units.
time (UTC)temp
F
wind
direction
speed
MPH
gust
MPH
rain 1hr
in
rain 24hr
in
rain mn
in
humidity
%
barometer
mb
20260502213712 63 0.0 0.0 0.00 0.00 0.00 53 1016.5
20260502212414 63 0.0 0.0 0.00 0.00 0.00 52 1016.5
20260502211114 63 0.0 0.0 0.00 0.00 0.00 52 1016.5
20260502205553 63 0.0 0.0 0.00 0.00 0.00 52 1016.6
20260502203839 64 0.0 0.0 0.00 0.00 0.00 51 1016.6
20260502202159 64 0.0 0.0 0.00 0.00 0.00 51 1016.6
20260502201045 65 0.0 0.0 0.00 0.00 0.00 51 1016.6
20260502195600 65 0.0 0.0 0.00 0.00 0.00 52 1016.5
20260502194257 66 0.0 0.0 0.00 0.00 0.00 52 1016.5
20260502192332 66 0.0 0.0 0.00 0.00 0.00 50 1016.4
20260502190539 67 0.0 0.0 0.00 0.00 0.00 49 1016.3
20260502184838 69 0.0 0.0 0.00 0.00 0.00 47 1016.1
20260502183219 70 0.0 0.0 0.00 0.00 0.00 44 1016.1
20260502181641 72 0.0 0.0 0.00 0.00 0.00 43 1016.2
20260502180344 73 0.0 0.0 0.00 0.00 0.00 41 1016.2
20260502164300 91 0.0 0.0 0.00 0.00 0.00 26 1016.3
20260502162637 91 0.0 0.0 0.00 0.00 0.00 25 1016.5
20260502160642 94 0.0 0.0 0.00 0.00 0.00 25 1016.6
20260502151516 95 0.0 0.0 0.00 0.00 0.00 25 1017.2
20260502122639 79 0.0 0.0 0.00 0.00 0.00 44 1019.3
20260502121208 76 0.0 0.0 0.00 0.00 0.00 49 1019.5
20260502115439 77 0.0 0.0 0.00 0.00 0.00 48 1019.8
20260502113908 76 0.0 0.0 0.00 0.00 0.00 50 1020.0
20260502112109 73 0.0 0.0 0.00 0.00 0.00 52 1020.3
20260502110418 71 0.0 0.0 0.00 0.00 0.00 52 1020.4
20260502104811 71 0.0 0.0 0.00 0.00 0.00 52 1020.5
20260502102833 69 0.0 0.0 0.00 0.00 0.00 54 1020.7
20260502101354 68 0.0 0.0 0.00 0.00 0.00 55 1020.9
20260502090844 64 0.0 0.0 0.00 0.00 0.00 56 1021.5
20260502071452 58 0.0 0.0 0.00 0.00 0.00 54 1022.2
20260502065542 59 0.0 0.0 0.00 0.00 0.00 54 1022.4
20260502064828 59 0.0 0.0 0.00 0.00 0.00 55 1022.4
20260502051312 52 0.0 0.0 0.00 0.00 0.00 66 1022.6
20260502045534 52 0.0 0.0 0.00 0.00 0.00 66 1022.5
20260502044150 52 0.0 0.0 0.00 0.00 0.00 67 1022.3
20260502042843 52 0.0 0.0 0.00 0.00 0.00 67 1022.3
20260502041307 51 0.0 0.0 0.00 0.00 0.00 67 1022.2
20260502035416 51 0.0 0.0 0.00 0.00 0.00 66 1022.0
20260502033627 52 0.0 0.0 0.00 0.00 0.00 64 1022.2
20260502032209 52 0.0 0.0 0.00 0.00 0.00 64 1022.1
20260502031049 53 0.0 0.0 0.00 0.00 0.00 62 1022.2
20260502025414 52 0.0 0.0 0.00 0.00 0.00 62 1022.5
20260502023736 51 0.0 0.0 0.00 0.00 0.00 65 1022.8
20260502021935 52 0.0 0.0 0.00 0.00 0.00 65 1022.3
20260502020322 53 0.0 0.0 0.00 0.00 0.00 62 1022.3
20260502014829 53 0.0 0.0 0.00 0.00 0.00 63 1022.4
20260502013649 53 0.0 0.0 0.00 0.00 0.00 61 1022.4
20260502012057 53 0.0 0.0 0.00 0.00 0.00 62 1022.6
20260502010612 53 0.0 0.0 0.00 0.00 0.00 62 1022.6
20260502004736 53 0.0 0.0 0.00 0.00 0.00 63 1022.7
20260502002935 53 0.0 0.0 0.00 0.00 0.00 64 1022.8
20260502001126 53 0.0 0.0 0.00 0.00 0.00 63 1022.9
20260501235714 53 0.0 0.0 0.00 0.00 0.00 62 1022.7
20260501233827 54 0.0 0.0 0.00 0.00 0.00 60 1022.8
20260501232209 55 0.0 0.0 0.00 0.00 0.00 56 1022.9
20260501231040 55 0.0 0.0 0.00 0.00 0.00 57 1023.0
20260501225530 55 0.0 0.0 0.00 0.00 0.00 55 1023.0
20260501224045 56 0.0 0.0 0.00 0.00 0.00 55 1023.1
20260501222204 56 0.0 0.0 0.00 0.00 0.00 54 1023.2
20260501220515 56 0.0 0.0 0.00 0.00 0.00 54 1023.3
20260501214807 57 0.0 0.0 0.00 0.00 0.00 52 1023.4